Location: Vulcan
(50.4000°N, 113.2500°W)
Time: 16:40:32
(UTC-06:00)

ISS - Visible Passes

Search period start: 25 March 2019 00:00
Search period end: 04 April 2019 00:00
Orbit: 408 x 411 km, 51.6° (Epoch: 26 March)

Date Brightness Start Highest point End Pass type
(mag) Time Alt. Az. Time Alt. Az. Time Alt. Az.
25 Mar -3.7 20:59:58 10° WSW 21:03:14 60° SSE 21:05:31 18° E visible
25 Mar -1.9 22:36:32 10° W 22:38:17 28° W 22:38:17 28° W visible
26 Mar -3.8 21:45:49 10° W 21:49:07 76° N 21:49:50 51° ENE visible
26 Mar -0.4 23:22:31 10° WNW 23:22:35 10° WNW 23:22:35 10° WNW visible
27 Mar -3.8 20:55:06 10° WSW 20:58:25 89° NNW 21:01:16 13° ENE visible
27 Mar -2.4 22:31:49 10° W 22:34:02 38° WNW 22:34:02 38° WNW visible
28 Mar -3.6 21:41:05 10° W 21:44:24 68° N 21:45:25 40° ENE visible
28 Mar -0.7 23:17:44 10° WNW 23:18:10 13° WNW 23:18:10 13° WNW visible
29 Mar -3.6 20:50:20 10° W 20:53:38 71° N 20:56:44 11° E visible
29 Mar -2.9 22:27:01 10° WNW 22:29:30 47° WNW 22:29:30 47° WNW visible
30 Mar -3.8 21:36:17 10° WNW 21:39:36 76° N 21:40:47 36° E visible
30 Mar -0.9 23:12:56 10° W 23:13:33 14° W 23:13:33 14° W visible
31 Mar -3.6 20:45:31 10° W 20:48:49 69° N 20:52:04 10° E visible
31 Mar -3.1 22:22:10 10° WNW 22:24:49 48° WSW 22:24:49 48° WSW visible
01 Apr -3.9 21:31:24 10° WNW 21:34:42 80° SSW 21:36:05 32° ESE visible
01 Apr -0.9 23:08:19 10° W 23:08:51 13° W 23:08:51 13° W visible
02 Apr -3.8 20:40:38 10° WNW 20:43:57 82° NNE 20:47:16 10° E visible
02 Apr -2.6 22:17:20 10° W 22:20:07 33° SW 22:20:07 33° SW visible
03 Apr -3.3 21:26:29 10° WNW 21:29:42 49° SSW 21:31:24 23° SE visible
